[[{"header":{"parameterUnit":"m.s-1","parameterCategory":1,"la1":30.2991,"la2":30.254,"lo1":-89.0895,"lo2":-89.0444,"dy":0.0017,"dx":0.0017,"nx":28,"ny":28,"refTime":"2024-06-01T09:00:00:Z","depth":0,"parameterNumber":2,"parameterNumberName":"U-component_of_WINDS"},"data":[0,0,0,0,0,0,0,0,0,0,0,0,0,0,0,0,0,0,0,0,0,0,0,0,0,0,0,0,0,0,0,0,0,0,0,0,0,0,0,0,0,0,0,0,0,0,0,0,0,0,0,0,0,0,0,0,0,0,0.1431,0.143,0,0.1352,0.1352,0.1351,0.1307,0.1307,0.1307,0.1306,0.1223,0.1221,0.1219,0,0,0,0,0,0,0,0,0,0,0,0,0,0.1541,0.1539,0.1431,0.143,0.1429,0.1353,0.1351,0.135,0.1307,0.1307,0.1307,0.1306,0.1224,0.1221,0.1219,0,0,0,0,0,0,0,0,0,0,0,0,0,0.1481,0.1538,0.1432,0.1399,0.1395,0.1353,0.1351,0.135,0.1307,0.1307,0.1307,0.1306,0.1224,0.1221,0.1218,0.1202,0,0,0.1208,0.1207,0,0,0,0,0,0,0,0,0.1484,0.1477,0.1404,0.1401,0.1396,0.1339,0.1359,0.13,0.1307,0.134,0.1306,0.1306,0.1262,0.1255,0.1241,0.1198,0.1195,0.1208,0.1206,0.1205,0.1204,0,0,0,0,0,0,0,0.1488,0.148,0.14,0.1403,0.1398,0.1386,0.1378,0.1348,0.1303,0.1337,0.1334,0.1325,0.1259,0.1244,0.1239,0.1193,0.1208,0.1205,0.1204,0.1202,0.1132,0.1132,0,0,0,0,0,0,0.1498,0.1483,0.1403,0.1398,0.1441,0.1385,0.1375,0.1358,0.1303,0.1294,0.1326,0.1324,0.125,0.1242,0.1235,0.1212,0.1205,0.1202,0.12,0.1132,0.1132,0.1132,0,0,0,0,0,0,0.1501,0.1491,0.1406,0.144,0.1428,0.1383,0.1364,0.1356,0.1341,0.1294,0.1286,0.1318,0.1249,0.124,0.1211,0.1208,0.1201,0.1198,0.1132,0.1132,0.1132,0.1166,0,0,0,0,0,0,0.1504,0.1493,0.1487,0.144,0.1426,0.1383,0.1364,0.1355,0.1336,0.1333,0.1285,0.1277,0.1248,0.1216,0.1207,0.1204,0.1195,0.1132,0.1132,0.1132,0.1165,0.1167,0.1169,0,0,0,0,0,0.1508,0.1499,0.1487,0.1477,0.1418,0.1383,0.1375,0.1343,0.1336,0.1329,0.1299,0.1279,0.121,0.1213,0.1203,0.1199,0.1132,0.1132,0.1132,0.1164,0.1167,0.1169,0,0,0,0,0,0,0.1547,0.1493,0.1478,0.1454,0.1424,0.1376,0.1367,0.1348,0.1318,0.1316,0.1276,0.1266,0.124,0.1216,0.122,0.118,0.1169,0.1167,0.1196,0.1198,0.1201,0.1206,0.1193,0,0,0,0,0,0.1553,0.153,0.1483,0.1467,0.1452,0.1412,0.1396,0.1374,0.134,0.1327,0.1294,0.1262,0.1232,0.1214,0.1185,0.1161,0.1149,0.1153,0.1155,0.1157,0.1156,0.114,0.1141,0.1132,0.1132,0.1132,0,0,0.1564,0.1532,0.152,0.1473,0.1447,0.1423,0.1402,0.1377,0.1359,0.1323,0.1293,0.1268,0.1229,0.1202,0.1188,0.1181,0.1156,0.1157,0.1159,0.1157,0.114,0.1141,0.1142,0.1132,0.1132,0.1132,0,0,0.1573,0.1547,0.1529,0.1503,0.1464,0.1438,0.1434,0.1388,0.1371,0.134,0.1313,0.1289,0.124,0.1213,0.1193,0.119,0.117,0.1182,0.1193,0.1178,0.1179,0.1179,0.1177,0.1177,0.1181,0.1181,0.1181,0,0.1592,0.1556,0.1523,0.15,0.1479,0.1446,0.1428,0.1404,0.1357,0.1343,0.1336,0.1274,0.1245,0.121,0.121,0.1195,0.1188,0.1187,0.1182,0.1182,0.1181,0.1179,0.1179,0.1183,0.1182,0.1182,0.1182,0,0.158,0.1556,0.1546,0.1502,0.1481,0.146,0.1423,0.1405,0.1384,0.1358,0.1327,0.1291,0.1254,0.1244,0.1223,0.1206,0.1203,0.1189,0.1177,0.1185,0.1182,0.118,0.1185,0.1184,0.1184,0.1183,0,0,0.1611,0.1549,0.1546,0.1525,0.1479,0.1459,0.1436,0.14,0.1385,0.1353,0.1332,0.1291,0.1278,0.1255,0.1231,0.1218,0.1217,0.1206,0.1204,0.1208,0.1194,0.1204,0.1204,0.1203,0.1203,0.1203,0.1197,0,0.1613,0.1571,0.154,0.151,0.1486,0.1454,0.1434,0.1402,0.1377,0.1352,0.1323,0.1294,0.128,0.1266,0.1251,0.122,0.1213,0.122,0.1182,0.1181,0.1192,0.1202,0.1213,0.1209,0.1196,0.1196,0.1195,0,0.1609,0.1579,0.1547,0.1502,0.1491,0.1474,0.1438,0.1414,0.1378,0.136,0.1334,0.1309,0.1282,0.1273,0.1234,0.124,0.1222,0.1204,0.1203,0.1198,0.1188,0.1196,0.1208,0.1207,0.1193,0.1194,0.1194,0,0.1633,0.1585,0.1559,0.1543,0.149,0.1479,0.1456,0.142,0.14,0.1367,0.1354,0.1319,0.13,0.1272,0.1238,0.1235,0.1202,0.1191,0.1186,0.1187,0.118,0.1181,0.1188,0.117,0.117,0.117,0.117,0,0.1638,0.1619,0.157,0.1554,0.1531,0.1495,0.1473,0.1448,0.1415,0.1393,0.1363,0.1342,0.1298,0.1272,0.1245,0.1216,0.1207,0.1191,0.1184,0.1194,0.1196,0.1181,0.118,0.117,0.117,0.117,0.117,0,0.1661,0.1628,0.1597,0.155,0.1538,0.1524,0.1483,0.1465,0.1438,0.141,0.1401,0.1358,0.1325,0.1288,0.1243,0.1224,0.1197,0.1187,0.121,0.1206,0.1203,0.1203,0.12,0.1197,0.1182,0.1183,0.1183,0,0.1666,0.1651,0.1603,0.1586,0.1565,0.1538,0.1517,0.1481,0.146,0.1417,0.1404,0.1369,0.1339,0.1288,0.1252,0.1217,0.1205,0.1206,0.12,0.1209,0.1204,0.1205,0.1203,0.1208,0.1209,0.1209,0.1209,0,0.1678,0.1662,0.1634,0.16,0.1577,0.1548,0.1518,0.1506,0.1463,0.1441,0.1408,0.1384,0.1338,0.1303,0.1264,0.1239,0.1216,0.1212,0.1209,0.1218,0.1231,0.1223,0.1215,0.1212,0.1212,0.1211,0.1211,0.1211,0.1691,0.1676,0.1639,0.1609,0.1583,0.1555,0.1536,0.1507,0.1479,0.1439,0.1419,0.1385,0.1347,0.1292,0.1267,0.124,0.1232,0.1228,0.1227,0.1226,0.1228,0.1236,0.1232,0.1232,0.1232,0.1232,0.1232,0,0.17,0.1675,0.1648,0.1607,0.1583,0.1565,0.1531,0.1511,0.1483,0.145,0.1421,0.1382,0.1347,0.1309,0.1271,0.1257,0.1245,0.1248,0.1248,0.1243,0.1237,0.1243,0.1258,0.1258,0.1258,0.1258,0.1258,0.1258,0.1702,0.1675,0.1655,0.1614,0.1588,0.1556,0.1538,0.1512,0.1485,0.1443,0.1415,0.139,0.1354,0.1314,0.1281,0.1271,0.1258,0.1263,0.125,0.1245,0.1243,0.1241,0.1247,0.1261,0.1261,0.1257,0.1257,0.1257]},{"header":{"parameterUnit":"m.s-1","parameterCategory":1,"la1":30.2991,"la2":30.254,"lo1":-89.0895,"lo2":-89.0444,"dy":0.0017,"dx":0.0017,"nx":28,"ny":28,"refTime":"2024-06-01T09:00:00:Z","depth":0,"parameterNumber":3,"parameterNumberName":"V-component_of_WINDS"},"data":[0,0,0,0,0,0,0,0,0,0,0,0,0,0,0,0,0,0,0,0,0,0,0,0,0,0,0,0,0,0,0,0,0,0,0,0,0,0,0,0,0,0,0,0,0,0,0,0,0,0,0,0,0,0,0,0,0,0,4.5042,4.5042,0,4.51,4.51,4.5101,4.5024,4.5022,4.5019,4.5016,4.5072,4.5075,4.5079,0,0,0,0,0,0,0,0,0,0,0,0,0,4.4859,4.4863,4.5041,4.5042,4.5043,4.5099,4.51,4.5101,4.5025,4.5022,4.5018,4.5015,4.507,4.5075,4.508,0,0,0,0,0,0,0,0,0,0,0,0,0,4.493,4.4864,4.5041,4.5012,4.501,4.5099,4.51,4.5101,4.5026,4.5021,4.5017,4.5013,4.5069,4.5075,4.5081,4.52,0,0,4.5099,4.5102,0,0,0,0,0,0,0,0,4.4926,4.4936,4.5015,4.5014,4.5012,4.5051,4.5056,4.5134,4.5027,4.5019,4.5016,4.5011,4.5068,4.5074,4.5093,4.5203,4.5205,4.51,4.5103,4.5106,4.5108,0,0,0,0,0,0,0,4.4921,4.4933,4.5064,4.5017,4.5015,4.4994,4.4999,4.507,4.5066,4.502,4.5014,4.5023,4.5066,4.5088,4.5094,4.5206,4.5099,4.5105,4.5108,4.5111,4.5414,4.5418,0,0,0,0,0,0,4.492,4.493,4.5062,4.5066,4.4958,4.5,4.5007,4.5042,4.5065,4.5064,4.5026,4.5019,4.5079,4.5087,4.5096,4.5236,4.5106,4.5111,4.5115,4.541,4.5415,4.542,0,0,0,0,0,0,4.4917,4.4933,4.506,4.4997,4.5011,4.5008,4.5049,4.5046,4.5067,4.507,4.5068,4.505,4.5076,4.5087,4.5175,4.5237,4.5114,4.512,4.5405,4.5411,4.5418,4.5519,0,0,0,0,0,0,4.4912,4.4932,4.4979,4.4998,4.5015,4.514,4.5053,4.505,4.5079,4.507,4.5091,4.5091,4.5074,4.5166,4.5181,4.5243,4.5124,4.5399,4.5408,4.5416,4.551,4.5528,4.5543,0,0,0,0,0,4.4905,4.5005,4.4982,4.4998,4.5074,4.5144,4.5153,4.5133,4.5084,4.513,4.5131,4.509,4.5228,4.5176,4.5191,4.5257,4.5395,4.5405,4.5415,4.5502,4.5524,4.5543,0,0,0,0,0,0,4.4992,4.5007,4.4982,4.509,4.5117,4.5131,4.5189,4.5157,4.5197,4.5187,4.5159,4.5164,4.5257,4.5266,4.5207,4.5372,4.5303,4.5317,4.5364,4.5385,4.5401,4.5397,4.5129,0,0,0,0,0,4.5024,4.5081,4.509,4.5185,4.52,4.5192,4.5222,4.5204,4.5229,4.524,4.5247,4.5272,4.532,4.5353,4.5398,4.551,4.5513,4.5563,4.558,4.5593,4.5605,4.5663,4.5685,4.5453,4.5453,4.5452,0,0,4.509,4.5105,4.5143,4.5203,4.5221,4.5279,4.5202,4.5267,4.5309,4.5249,4.5332,4.5339,4.5364,4.5464,4.5508,4.5474,4.567,4.5606,4.5617,4.5621,4.5675,4.5697,4.5717,4.5459,4.5458,4.5457,0,0,4.524,4.5258,4.5338,4.5358,4.5387,4.5381,4.54,4.5419,4.5421,4.5504,4.546,4.5509,4.5594,4.5613,4.5634,4.579,4.5753,4.5805,4.5893,4.595,4.5968,4.5984,4.6038,4.6058,4.5817,4.5817,4.5817,0,4.5318,4.5405,4.5383,4.5451,4.5478,4.5427,4.5507,4.5526,4.5568,4.5587,4.5547,4.5652,4.5666,4.5768,4.5806,4.5826,4.5845,4.5802,4.5967,4.5983,4.5998,4.6049,4.6069,4.5823,4.5823,4.5822,4.5821,0,4.5499,4.556,4.5621,4.5663,4.5697,4.577,4.5757,4.5793,4.5772,4.577,4.5854,4.5868,4.5915,4.5938,4.5918,4.6037,4.6015,4.5972,4.5902,4.6026,4.6074,4.6093,4.5832,4.583,4.5828,4.5827,0,0,4.5706,4.5734,4.5757,4.5774,4.5802,4.5847,4.5917,4.5964,4.5994,4.6024,4.6081,4.6153,4.6113,4.6137,4.6119,4.6169,4.6289,4.6119,4.6119,4.6149,4.6419,4.6451,4.6474,4.6264,4.6268,4.6271,4.6417,0,4.5855,4.5978,4.5959,4.6076,4.6131,4.6083,4.6143,4.6165,4.6165,4.6209,4.6207,4.6259,4.6203,4.6217,4.6265,4.6264,4.6342,4.6253,4.6315,4.6318,4.631,4.6499,4.6532,4.6669,4.6435,4.6438,4.6441,0,4.6045,4.6083,4.6206,4.6223,4.6245,4.6301,4.634,4.6384,4.6407,4.6403,4.6429,4.6401,4.6468,4.6397,4.6489,4.6429,4.6453,4.6456,4.6461,4.6465,4.6386,4.6507,4.6712,4.6733,4.647,4.6467,4.6465,0,4.6182,4.6263,4.6347,4.6364,4.6386,4.6425,4.6436,4.6455,4.6484,4.6518,4.6535,4.6577,4.6599,4.6631,4.6613,4.6564,4.6708,4.6635,4.6704,4.6705,4.6736,4.6734,4.6947,4.6754,4.6753,4.6753,4.6752,0,4.6349,4.6427,4.6408,4.646,4.6544,4.652,4.6604,4.6608,4.6626,4.6676,4.6636,4.6683,4.6658,4.6703,4.669,4.6766,4.6777,4.6774,4.6769,4.6777,4.6778,4.6792,4.6782,4.6758,4.6757,4.6756,4.6755,0,4.6516,4.6508,4.6596,4.6609,4.6614,4.6676,4.6686,4.6733,4.6729,4.6793,4.6806,4.6799,4.685,4.6836,4.689,4.6881,4.6978,4.6962,4.6971,4.6966,4.7035,4.7029,4.7265,4.7293,4.7082,4.7084,4.7086,0,4.6624,4.6682,4.6702,4.6733,4.6747,4.6798,4.6827,4.6805,4.6836,4.6866,4.6909,4.6956,4.6993,4.7076,4.7074,4.7115,4.7099,4.7179,4.7105,4.711,4.7099,4.7095,4.71,4.7193,4.7196,4.7198,4.7199,0,4.6815,4.6807,4.6851,4.6893,4.6928,4.696,4.6988,4.7015,4.6995,4.7031,4.7083,4.7112,4.7167,4.7214,4.7252,4.726,4.7226,4.7223,4.724,4.7249,4.7251,4.7249,4.701,4.7217,4.7215,4.7214,4.7213,4.7212,4.6954,4.7003,4.7024,4.7074,4.7092,4.7119,4.7163,4.7164,4.7208,4.7252,4.7236,4.7295,4.7314,4.7361,4.7374,4.7419,4.7388,4.7414,4.7421,4.7428,4.7436,4.7245,4.7426,4.7425,4.7425,4.7424,4.7424,0,4.7142,4.7153,4.7199,4.7239,4.7277,4.7243,4.7271,4.7305,4.7357,4.7379,4.7416,4.7474,4.7519,4.7521,4.7562,4.7597,4.7582,4.7609,4.7605,4.7608,4.7461,4.7441,4.762,4.762,4.762,4.762,4.762,4.762,4.7244,4.7324,4.7319,4.7407,4.7417,4.7475,4.7494,4.7517,4.7534,4.7602,4.7639,4.764,4.7653,4.7695,4.7734,4.7733,4.7749,4.7782,4.7775,4.7638,4.7618,4.76,4.7581,4.7786,4.7786,4.7917,4.7918,4.7919]}]]